AIS & APRS & ARIS & R/B (44104 NORAD) Tracking and Keplerian Element Data

This shows tracking and keplerian element data for the satellite.

Feedback or suggestion? Click here.




ElementValue
Catalog44104
NameAIS & APRS & ARIS & R/B
Epoch Orbit29142
Epoch Day160.06569217
Epoch Year2024
RAAN270.8938
Inclination97.3593
Eccentricity0.0008452
Argument of Perigee334.5142
Mean Anonmoly25.5718
Mean Motion15.98874154
Decay Rate0.00401647
L11 44104U 19018AC 24160.06569217 .00401647 69660-4 84299-3 0 9999
L22 44104 97.3593 270.8938 0008452 334.5142 25.5718 15.98874154291427



Live tracking and technical data element details for AIS & APRS & ARIS & R/B (NORAD 44104). AIS & APRS & ARIS & R/B can be tracked NOW for your location showing map with azimuth and elevation plus other details from your city location.







IsCatalogInMostPopularTable: catalog: 44104, numindb: 342
Update: records affected: 1



GetName: 44104 AIS & APRS & ARIS & R/B

Hit Count: updated at: Thu, 22 May 2025 02:44:14 GMT